Overview Statistics Trail Chart Weather Telemetry Raw packets
 

This is the latest recevied weather packets stored in our database for station/object OE2WAO-15. If no packets are shown the sender has not sent any weather packets the latest 10 day(s).

<< 7 8 9 10 11 12 13 >>
Time Temp. Humidity Pressure Rain* Wind** Luminosity Snow
1788373992 22.22° C 99% 1021.1 hPa - - - -
1788373384 22.22° C 99% 1021 hPa - - - -
1788372777 22.22° C 99% 1020.8 hPa - - - -
1788372169 22.22° C 99% 1020.6 hPa - - - -
1788371561 22.78° C 99% 1020.6 hPa - - - -
1788370342 22.78° C 99% 1020.5 hPa - - - -
1788369124 22.78° C 99% 1020.4 hPa - - - -
1788368516 23.33° C 99% 1020.4 hPa - - - -
1788367909 23.89° C 99% 1020.3 hPa - - - -
1788367301 24.44° C 99% 1020.4 hPa - - - -
1788366694 24.44° C 99% 1020.4 hPa - - - -
1788366086 24.44° C 99% 1020.3 hPa - - - -
1788364866 24.44° C 99% 1020.3 hPa - - - -
1788364259 25° C 99% 1020.4 hPa - - - -
1788363651 25° C 99% 1020.4 hPa - - - -
1788363044 25° C 99% 1020.5 hPa - - - -
1788362436 25.56° C 99% 1020.5 hPa - - - -
1788361852 25.56° C 99% 1020.5 hPa - - - -
1788361221 25.56° C 96% 1020.6 hPa - - - -
1788360614 25.56° C 89% 1020.7 hPa - - - -
1788360006 25.56° C 98% 1020.8 hPa - - - -
1788359399 26.11° C 95% 1020.8 hPa - - - -
1788358791 26.11° C 97% 1020.9 hPa - - - -
1788358184 26.11° C 94% 1020.9 hPa - - - -
1788357576 25.56° C 99% 1020.9 hPa - - - -

* Rain since midnight (hover to see other rain measurements)
** Current wind speed in m/s (hover to see current wind gust speed)